Retour au catalogue

SL-8 DEB

ActifUNKNOWN
NORAD 10013·DEBRIS·🇷🇺 Russia

Lancé May 19, 1977 depuis Plesetsk Cosmodrome

Loading…

Prochains Passages (prochaines 24 heures)

TLE

FraisSource: Space-Track

Époque: Sep 14, 2026, 07:34 UTC

1 10013U 77036C   26257.31528337 -.00000071  00000-0 -59902-4 0  9991
2 10013  65.8688  17.6942 0702817  10.6253  13.9215 12.30816848196591

Suivez SL-8 DEB en temps réel avec AllMySat

Download on the App Store